COSMOS 252 DEB *, 3938

Orbit data source: Space-Track

COSMOS 252 DEB *, 3938 is space debris in LEO originally from a launch on Fri, 01 Nov 1968 UTC launched from the Tyuratam Missile And Space Complex (TTMTR). Debris objects in space refer to the collection of defunct objects orbiting the Earth. Examples of debris include non-operational satellites, rocket bodies, and fragments generated from explosions, collisions, or faulty payload assembly.

Loading next visibility...
Identifier
3938, 1968-097BS
Orbit
LEO
Country
Flag of CISCIS
Related business
Manufacturer
Unknown
Mission
Spacecraft
Bus & Motor
Unknown
Mass
Unknown
Launch date (UTC)
1968-11-01 (57 years ago)
Launch vehicle
Unknown
Launch site
Tyuratam Missile And Space Complex (TTMTR)
Object type
Payload
Rocket body
Debris
Shape & HBR
Unknown shape, 0.1 m
Radar Cross Section
Small (<0.1 m²)

Expand to show TLE details & history
Last TLE update: 15 hours ago

TLE from 15 hours ago
0 COSMOS 252 DEB *
1 03938U 68097BS  26121.71707424  .00000351  00000-0  27941-3 0  9992
2 03938  63.0311 255.2842 1062177 315.3656 147.5025 12.56319659565096
Epoch: 2026-05-01T17:12Z
TLE epoch observation values (Epoch: 2026-05-01T17:12:35.214Z)
Latitude
57.6717°
Longitude
-95.68118°
Altitude
2,169.355 km
Speed
6.512 km/s
True Right ascension
01h 28m 26s
True Declination
57° 32' 31"
Sunlit
Object was in daylight at epoch
Visualization orbit readout
Latitude
Unknown
Longitude
Unknown
Altitude
Unknown
Speed
Unknown
Apparent Right ascension
Unknown
Apparent Declination
Unknown
Sunlit
N/A
Visualization observer readout
Local Sidereal Time
16:18:34
Azimuth
Unknown
Elevation
Unknown
Doppler factor
Unknown
Orbital elements
Apogee altitude
2,267.194 km
Perigee altitude
606.965 km
Semi-major axis
7,815.217 km
Eccentricity
0.10622
Inclination
63.0311°
RAAN
255.2842°
Arg. of periapsis
315.3656°
True anomaly
153.37099°
Mean anomaly
147.5025°
Eccentric anomaly
150.49936°
Mean motion
3.14146 °/min
Orbital period
114.6 mins
BSTAR
0.00027941
Loading maneuver chart data...
Computing Atmospheric mass density...

Documentation

Showing up to 5 results
|